Online Auction of Automotive Machine Shop Equipment for Sale in Penngrove, CA

Lot #0109: Rottler F2MB Boring Bar with Shelf of Machinery Pieces and Tools

Bidding is closed.
High Bid:$3,700.00
NA
Bidding Ended: Thu, Mar 7  10:16:39 am PT
High Bidder: jbrat
Bid Increment: $50.00
Starting Bid: $5.00
Item Location: Penngrove, CA 94951
Item has been viewed 1,542 times.

Rottler F2MB Boring Bar with Shelf of Machinery Pieces and Tools

  • Model: F2MB
  • Serial: 4912
  • Single Phase
  • Spindle Speed: 200-400
  • Baldor 1 H.P. Motor
  • 1725 RPM
  • Single Phase Motor
  • Manual Controls
  • Includes Shelf with machinery pieces and tools
Bid Date Bid Amount Bidder
Mar 7, 2019 - 10:14:39 AM $3,700.00 ijbrat
Mar 7, 2019 - 10:14:39 AM $3,650.00 ilsgarage
Mar 7, 2019 - 10:13:14 AM $3,600.00 ijbrat
Mar 7, 2019 - 10:13:14 AM $3,550.00 ilsgarage
Mar 7, 2019 - 10:12:58 AM $3,450.00 ijbrat
Mar 7, 2019 - 10:12:58 AM $3,400.00 ilsgarage
Mar 7, 2019 - 10:12:41 AM $3,250.00 ijbrat
Mar 7, 2019 - 10:12:41 AM $3,200.00 ilsgarage
Mar 7, 2019 - 10:12:01 AM $3,050.00 ijbrat
Mar 7, 2019 - 10:12:01 AM $3,000.00 ilsgarage
Mar 7, 2019 - 9:52:33 AM $2,750.00 ilsgarage
Mar 7, 2019 - 9:52:33 AM $2,700.00 ijbrat
Mar 7, 2019 - 7:28:55 AM $2,560.00 ilsgarage
Mar 7, 2019 - 7:25:35 AM $2,510.00 idcmachine
Mar 7, 2019 - 7:25:35 AM $2,500.00 ilsgarage
Mar 7, 2019 - 7:25:21 AM $2,460.00 ilsgarage
Mar 7, 2019 - 7:25:21 AM $2,410.00 idcmachine
Mar 7, 2019 - 7:25:08 AM $2,360.00 ilsgarage
Mar 7, 2019 - 7:25:08 AM $2,310.00 idcmachine
Mar 7, 2019 - 7:24:52 AM $2,260.00 ilsgarage
Mar 7, 2019 - 7:24:52 AM $2,210.00 idcmachine
Mar 7, 2019 - 7:24:16 AM $2,160.00 ilsgarage
Mar 7, 2019 - 7:24:16 AM $2,110.00 idcmachine
Mar 7, 2019 - 7:23:35 AM $2,060.00 ilsgarage
Mar 7, 2019 - 7:23:35 AM $2,010.00 idcmachine
Mar 6, 2019 - 11:42:24 PM $1,900.00 ilsgarage
Mar 6, 2019 - 9:14:17 PM $1,850.00 idcmachine
Mar 6, 2019 - 9:13:56 PM $1,800.00 ilsgarage
Mar 6, 2019 - 9:13:57 PM $1,800.00 idcmachine
Mar 6, 2019 - 9:13:39 PM $1,750.00 ilsgarage
Mar 6, 2019 - 9:13:39 PM $1,700.00 idcmachine
Mar 6, 2019 - 9:12:55 PM $1,650.00 ilsgarage
Mar 6, 2019 - 9:12:55 PM $1,600.00 idcmachine
Mar 6, 2019 - 8:52:50 PM $1,550.00 ilsgarage
Mar 6, 2019 - 8:42:00 PM $1,500.00 idcmachine
Mar 6, 2019 - 8:42:01 PM $1,500.00 ilsgarage
Mar 6, 2019 - 9:05:31 AM $1,010.00 idcmachine
Mar 6, 2019 - 9:05:04 AM $1,000.00 ifowlerranch
Mar 6, 2019 - 9:05:05 AM $1,000.00 idcmachine
Mar 6, 2019 - 9:04:50 AM $810.00 ifowlerranch
Mar 6, 2019 - 9:04:50 AM $800.00 idcmachine
Mar 6, 2019 - 9:04:37 AM $610.00 ifowlerranch
Mar 6, 2019 - 9:04:37 AM $600.00 idcmachine
Mar 6, 2019 - 9:04:22 AM $510.00 ifowlerranch
Mar 6, 2019 - 9:04:22 AM $500.00 idcmachine
Mar 5, 2019 - 6:18:27 PM $460.00 ifowlerranch
Mar 5, 2019 - 6:18:27 PM $450.00 itemperforman
Mar 5, 2019 - 1:37:56 PM $410.00 ifowlerranch
Mar 5, 2019 - 1:37:56 PM $400.00 itemperforman
Mar 5, 2019 - 1:37:48 PM $385.00 ifowlerranch
Mar 5, 2019 - 1:37:48 PM $375.00 itemperforman
Mar 5, 2019 - 1:37:39 PM $360.00 ifowlerranch
Mar 5, 2019 - 1:37:39 PM $350.00 itemperforman
Mar 5, 2019 - 10:12:28 AM $246.00 ifowlerranch
Mar 5, 2019 - 10:12:28 AM $236.00 ibeerzilla
Mar 5, 2019 - 10:08:40 AM $105.00 ibeerzilla
Mar 5, 2019 - 10:08:40 AM $100.00 ilsgarage
Mar 5, 2019 - 10:04:39 AM $5.00 ilsgarage
Click on any picture to see a larger image.